Back to catalog

STARLINK-32454

AliveCommunicationsVLEO
NORAD 62142·PAYLOAD·🇺🇸 United States

Launched Nov 30, 2024 from Cape Canaveral Space Force Station

Loading…

Next Passes (next 24 hours)

TLE

FreshSource: CelesTrak SupGP

Epoch: Sep 14, 2026, 20:44 UTC

1 62142C 24224D   26257.86437500 -.00005153  00000+0 -18660-3 0  2570
2 62142  42.9999 177.2763 0001499 262.9389 136.8148 15.27586157    13

Track STARLINK-32454 in real time with AllMySat

Download on the App Store